Location: Prague
(50.0830°N, 14.4670°E)
Time: 04:01:26
(UTC+01:00)

XW-2C - Visible Passes

Search period start: 06 December 2021 00:00
Search period end: 16 December 2021 00:00
Orbit: 505 x 523 km, 97.5° (Epoch: 05 December)

Date Brightness Start Highest point End Pass type
(mag) Time Alt. Az. Time Alt. Az. Time Alt. Az.
06 Dec ? 05:49:04 10° NNE 05:52:45 45° E 05:56:25 10° S visible
06 Dec ? 16:33:18 10° SE 16:36:51 41° ENE 16:40:26 10° N visible
06 Dec ? 18:08:22 10° SW 18:11:04 19° W 18:13:48 10° NW visible
07 Dec ? 05:33:54 10° NNE 05:37:21 31° E 05:40:46 10° SSE visible
07 Dec ? 17:52:24 10° SSW 17:55:36 27° W 17:58:52 10° NW visible
08 Dec ? 05:18:52 10° NE 05:21:54 22° E 05:24:55 10° SE visible
08 Dec ? 06:52:31 10° N 06:56:03 36° WNW 06:59:33 10° SW visible
08 Dec ? 17:36:39 10° SSW 17:40:11 38° W 17:43:46 10° NNW visible
09 Dec ? 05:04:04 10° NE 05:06:26 16° E 05:08:46 10° SE visible
09 Dec ? 06:37:02 10° N 06:40:46 52° WNW 06:44:28 10° SSW visible
09 Dec ? 17:21:05 10° S 17:24:47 57° W 17:28:32 10° NNW visible
10 Dec ? 04:49:56 10° ENE 04:50:55 11° E 04:51:52 10° ESE visible
10 Dec ? 06:21:37 10° N 06:25:27 78° WNW 06:29:14 10° SSW visible
10 Dec ? 17:05:39 10° SSE 17:09:25 86° WSW 17:13:14 10° NNW visible
11 Dec ? 06:06:16 10° NNE 06:10:06 71° ESE 06:13:54 10° S visible
11 Dec ? 16:50:21 10° SSE 16:54:04 64° ENE 16:57:51 10° N visible
11 Dec ? 18:26:47 10° WSW 18:28:32 13° W 18:30:16 10° WNW visible
12 Dec ? 05:50:59 10° NNE 05:54:42 47° E 05:58:23 10° S visible
12 Dec ? 16:35:11 10° SE 16:38:46 43° ENE 16:42:24 10° N visible
12 Dec ? 18:10:21 10° SW 18:13:00 18° W 18:15:41 10° NW visible
13 Dec ? 05:35:48 10° NNE 05:39:17 32° E 05:42:43 10° SSE visible
13 Dec ? 07:10:02 10° N 07:13:11 25° WNW 07:16:19 10° WSW visible
13 Dec ? 17:54:19 10° SSW 17:57:31 26° W 18:00:45 10° NW visible
14 Dec ? 05:20:44 10° NE 05:23:49 23° E 05:26:52 10° SSE visible
14 Dec ? 06:54:26 10° N 06:57:55 34° WNW 07:01:23 10° SW visible
14 Dec ? 17:38:32 10° SSW 17:42:03 37° W 17:45:38 10° NNW visible
15 Dec ? 05:05:52 10° NE 05:08:18 16° E 05:10:44 10° SE visible
15 Dec ? 06:38:54 10° N 06:42:37 50° WNW 06:46:18 10° SSW visible
15 Dec ? 17:22:55 10° S 17:26:38 55° W 17:30:23 10° NNW visible
